Port Angeles, WA
on Friday, February 8, 2013

Friday
Previous Day Next Day
Daily Summary
 ActualAverageRecord
Temperature
Mean Temperature °F °F  
Max Temperature 45°F 47°F 65°F (1963)
Min Temperature 33°F 35°F 22°F (1989)
Degree Days
Heating Degree Days 26    
Moisture
Dew Point 34°F   
Average Humidity 80    
Maximum Humidity 89    
Minimum Humidity 65    
Precipitation
Precipitation 0.00 in in in ()
Wind
Wind Speed 7 mph   
Max Wind Speed 13 mph   
Max Gust Speed mph   
Visibility 10 miles   
Events     
Averages and records for this station are not official NWS values.
Key: T is trace of precipitation, MM is missing value
Source: NWS Daily Summary
Seasonal Weather Averages
Time(PST)TemperatureDew PointHumidity Pressure Visibility Wind DirectionWind SpeedGust SpeedPrecipitationEvents Conditions
12:53 AM 37.0°F 32.0°F 82% 30.21 in 10.0 miles WSW 11.5 mph - N/A   Clear
1:53 AM 37.0°F 30.9°F 79% 30.22 in 10.0 miles WSW 12.7 mph - N/A   Clear
2:53 AM 37.0°F 30.9°F 79% 30.24 in 10.0 miles West 12.7 mph - N/A   Clear
3:53 AM 36.0°F 30.0°F 79% 30.25 in 10.0 miles WSW 10.4 mph - N/A   Clear
4:53 AM 35.1°F 28.9°F 78% 30.25 in 10.0 miles SW 9.2 mph - N/A   Clear
5:53 AM 34.0°F 28.9°F 82% 30.27 in 10.0 miles SW 6.9 mph - N/A   Clear
6:53 AM 33.1°F 28.0°F 82% 30.28 in 10.0 miles WSW 8.1 mph - N/A   Clear
7:53 AM 33.1°F 28.0°F 82% 30.28 in 10.0 miles North - - N/A   Clear
8:53 AM 36.0°F 30.0°F 79% 30.30 in 10.0 miles North - - N/A   Clear
9:53 AM 39.9°F 30.9°F 70% 30.30 in 10.0 miles North - - N/A   Clear
10:53 AM 44.1°F 33.1°F 65% 30.30 in 10.0 miles North - - N/A   Clear
11:53 AM 44.1°F 34.0°F 68% 30.30 in 10.0 miles North 4.6 mph - N/A   Clear
12:53 PM 45.0°F 36.0°F 71% 30.30 in 10.0 miles Variable 3.5 mph - N/A   Clear
1:53 PM 45.0°F 35.1°F 68% 30.29 in 10.0 miles North 5.8 mph - N/A   Clear
2:48 PM 44.6°F 35.6°F 71% 30.28 in 10.0 miles Calm Calm - N/A   Mostly Cloudy
2:53 PM 45.0°F 35.1°F 68% 30.29 in 10.0 miles Calm Calm - N/A   Mostly Cloudy
3:12 PM 44.1°F 36.0°F 73% 30.28 in 10.0 miles North 4.6 mph - N/A   Partly Cloudy
3:53 PM 43.0°F 37.0°F 80% 30.29 in 10.0 miles Calm Calm - N/A   Partly Cloudy
4:53 PM 43.0°F 36.0°F 76% 30.29 in 10.0 miles Calm Calm - N/A   Mostly Cloudy
5:03 PM 42.1°F 36.0°F 79% 30.28 in 10.0 miles Calm Calm - N/A   Scattered Clouds
5:14 PM 41.0°F 36.0°F 82% 30.28 in 10.0 miles Calm Calm - N/A   Mostly Cloudy
5:50 PM 39.2°F 35.6°F 87% 30.28 in 10.0 miles Calm Calm - N/A   Scattered Clouds
5:53 PM 39.0°F 36.0°F 89% 30.29 in 10.0 miles Calm Calm - N/A   Scattered Clouds
6:01 PM 39.0°F 36.0°F 89% 30.28 in 10.0 miles SSW 3.5 mph - N/A   Mostly Cloudy
6:16 PM 39.0°F 36.0°F 89% 30.28 in 10.0 miles SW 3.5 mph - N/A   Overcast
6:53 PM 39.0°F 35.1°F 86% 30.29 in 10.0 miles Calm Calm - N/A   Overcast
7:53 PM 39.0°F 36.0°F 89% 30.29 in 10.0 miles SW 5.8 mph - N/A   Mostly Cloudy
8:03 PM 39.0°F 36.0°F 89% 30.27 in 10.0 miles SW 5.8 mph - N/A   Overcast
8:22 PM 39.0°F 35.1°F 86% 30.28 in 10.0 miles West 6.9 mph - N/A   Mostly Cloudy
8:53 PM 39.9°F 36.0°F 86% 30.29 in 10.0 miles SW 4.6 mph - N/A   Overcast
9:10 PM 39.9°F 35.1°F 83% 30.28 in 10.0 miles WSW 3.5 mph - N/A   Overcast
9:53 PM 39.9°F 34.0°F 79% 30.27 in 10.0 miles WSW 8.1 mph - N/A   Mostly Cloudy
10:53 PM 39.9°F 34.0°F 79% 30.28 in 10.0 miles WSW 6.9 mph - N/A   Overcast
11:53 PM 39.9°F 34.0°F 79% 30.27 in 10.0 miles WSW 9.2 mph - N/A   Overcast
Moon Phase
Feb. 08 Feb. 10 Feb. 17 Feb. 25 Mar. 04
Sunrise:07:31 AM (PST) Moon Rise:06:07 AM (PST)2/8
Sunset:05:25 PM (PST) Moon Set:04:03 PM (PST)2/8

Copyright © 2014 The Weather Underground, Inc.